Vertical_Velocity
-2 -1 -1 -1 -2 -2 -2 -1 -2 -1 1 -1 -2 -0 3 4 3 3 2 3 2 0
-1 -1 -0 -3 -3 -1 -1 -2 -2 0 0 -1 -0 3 4 4 3 3 5 3 4 2
-2 -1 -1 -1 0 -1 -0 -2 0 1 0 -0 2 7 3 1 1 3 4 2 1 2
-1 -1 -1 -1 -3 -1 -1 -2 1 -0 -1 3 4 1 1 2 4 5 3 2 4 4
-2 -1 -0 -3 -1 -2 -0 -1 -0 -1 3 3 3 -0 1 4 3 3 0 2 10 6
-1 -0 -3 -1 -1 0 -1 -0 -0 1 3 2 -1 2 3 6 7 8 4 18 4 8
-1 -2 -1 -0 -1 0 -2 1 0 -3 1 1 -1 5 2 12 11 8 10 12 8 -1
-2 -2 -1 -0 -0 -1 -2 0 -1 -2 1 3 6 1 6 8 5 3 17 10 1 -1
-1 -1 -0 0 -2 -1 -3 1 0 -3 1 -0 4 13 10 5 4 7 3 5 15 -1
-1 -1 -0 -2 -1 -1 -2 -1 -2 -0 2 1 3 8 16 11 5 11 8 7 4 8
-1 -1 -0 -1 0 -1 -0 -2 -2 -1 -1 3 -1 15 18 1 -3 4 5 -4 4 18
-1 -0 -1 1 -1 -2 -1 1 -5 2 2 1 -1 14 12 -0 5 3 8 1 2 1
0 -0 -0 -1 -1 0 -3 -2 2 1 1 3 3 4 11 -1 7 4 2 7 5 8
1 1 0 -2 -0 -1 -0 3 0 -1 -0 0 1 2 4 10 5 -2 2 2 2 -2
Height
3042 3035 3027 3018 3009 3000 2993 2986 2977 2968 2958 2948 2940 2932 2923 2915 2906 2898 2892 2887 2882 2880
3042 3035 3026 3018 3007 2998 2992 2984 2975 2965 2955 2946 2936 2927 2918 2908 2899 2890 2883 2877 2873 2870
3041 3034 3025 3016 3007 2998 2991 2983 2974 2964 2954 2944 2934 2923 2912 2901 2893 2884 2877 2870 2866 2863
3041 3033 3024 3016 3007 2998 2991 2982 2973 2963 2953 2942 2931 2920 2908 2898 2889 2881 2874 2867 2864 2862
3042 3034 3026 3017 3008 3000 2991 2982 2973 2963 2953 2943 2932 2919 2907 2897 2889 2881 2875 2871 2869 2869
3043 3036 3028 3018 3010 3001 2993 2984 2976 2965 2955 2945 2934 2921 2909 2897 2889 2882 2879 2879 2878 2880
3045 3038 3030 3021 3012 3004 2996 2988 2978 2967 2958 2948 2937 2925 2914 2904 2898 2893 2890 2891 2891 2892
3047 3041 3032 3024 3016 3007 3000 2991 2982 2973 2964 2954 2943 2932 2921 2914 2911 2908 2907 2907 2908 2910
3050 3044 3037 3029 3020 3012 3005 2997 2990 2979 2971 2962 2952 2942 2934 2925 2922 2920 2922 2924 2923 2925
3054 3048 3041 3034 3026 3018 3009 3003 2997 2987 2978 2969 2963 2954 2946 2939 2935 2933 2935 2937 2936 2939
3058 3053 3046 3040 3033 3025 3016 3010 3003 2995 2986 2979 2973 2967 2961 2954 2951 2949 2950 2951 2951 2953
3062 3058 3052 3047 3039 3031 3024 3018 3011 3006 2998 2989 2983 2980 2976 2969 2964 2962 2961 2962 2965 2968
3067 3063 3059 3053 3046 3039 3032 3025 3020 3015 3009 3001 2995 2992 2988 2982 2978 2976 2975 2974 2976 2979
3073 3070 3065 3060 3054 3047 3041 3037 3030 3025 3019 3013 3006 3003 2999 2997 2993 2990 2990 2989 2989 2990